Time,TemperatureF,DewpointF,PressureIn,WindDirection,WindDirectionDegrees,WindSpeedMPH,WindSpeedGustMPH,Humidity,HourlyPrecipIn,Conditions,Clouds,dailyrainin,SoftwareType,DateUTC
2013-06-07 00:01:00,61.5,60.6,30.04,East,82,0.0,2.0,97,0.03,,,0.20,meteohub,2013-06-07 04:01:00,
2013-06-07 00:03:00,61.5,60.6,30.04,East,91,0.0,2.0,97,0.03,,,0.20,meteohub,2013-06-07 04:03:00,
2013-06-07 00:08:00,61.5,60.6,30.04,ESE,120,1.0,2.0,97,0.04,,,0.01,meteohub,2013-06-07 04:08:00,
2013-06-07 00:13:00,61.5,60.6,30.04,ESE,104,0.0,2.0,97,0.05,,,0.02,meteohub,2013-06-07 04:13:00,
2013-06-07 00:18:00,61.5,60.6,30.04,East,98,1.0,2.0,97,0.05,,,0.02,meteohub,2013-06-07 04:18:00,
2013-06-07 00:23:00,61.5,60.6,30.04,ESE,105,1.0,2.0,97,0.04,,,0.02,meteohub,2013-06-07 04:23:00,
2013-06-07 00:28:00,61.5,60.6,30.04,ESE,108,0.0,2.0,97,0.05,,,0.03,meteohub,2013-06-07 04:28:00,
2013-06-07 00:33:00,61.5,60.6,30.04,ESE,108,0.0,2.0,97,0.04,,,0.03,meteohub,2013-06-07 04:33:00,
2013-06-07 00:38:00,61.5,60.6,30.03,ESE,115,1.0,2.0,97,0.04,,,0.03,meteohub,2013-06-07 04:38:00,
2013-06-07 00:43:00,61.3,60.4,30.03,ESE,114,0.0,2.0,97,0.04,,,0.03,meteohub,2013-06-07 04:43:00,
2013-06-07 00:48:00,61.3,60.4,30.03,ESE,117,1.0,2.0,97,0.04,,,0.03,meteohub,2013-06-07 04:48:00,
2013-06-07 00:53:00,61.3,60.4,30.03,East,87,1.0,2.0,97,0.03,,,0.03,meteohub,2013-06-07 04:53:00,
2013-06-07 00:58:00,61.3,60.4,30.02,ESE,110,0.0,2.0,97,0.03,,,0.03,meteohub,2013-06-07 04:58:00,
2013-06-07 01:03:00,61.2,60.3,30.01,ESE,105,0.0,2.0,97,0.02,,,0.03,meteohub,2013-06-07 05:03:00,
2013-06-07 01:08:00,61.2,60.3,30.01,East,97,0.0,2.0,97,0.02,,,0.03,meteohub,2013-06-07 05:08:00,
2013-06-07 01:13:00,61.2,60.3,30.01,ESE,115,0.0,2.0,97,0.01,,,0.03,meteohub,2013-06-07 05:13:00,
2013-06-07 01:18:00,61.0,60.1,30.01,East,99,0.0,2.0,97,0.01,,,0.03,meteohub,2013-06-07 05:18:00,
2013-06-07 01:23:00,61.0,60.1,30.01,ESE,117,1.0,2.0,97,0.01,,,0.03,meteohub,2013-06-07 05:23:00,
2013-06-07 01:28:00,61.0,60.1,30.01,ESE,108,0.0,2.0,97,0.01,,,0.04,meteohub,2013-06-07 05:28:00,
2013-06-07 01:33:00,60.8,59.9,30.01,ESE,103,1.0,2.0,97,0.02,,,0.05,meteohub,2013-06-07 05:33:00,
2013-06-07 01:38:00,61.0,60.1,30.00,ESE,112,1.0,2.0,97,0.02,,,0.05,meteohub,2013-06-07 05:38:00,
2013-06-07 01:43:00,61.0,60.1,30.00,East,86,0.0,2.0,97,0.02,,,0.05,meteohub,2013-06-07 05:43:00,
2013-06-07 01:48:00,61.0,60.1,30.00,ESE,105,2.0,2.0,97,0.02,,,0.05,meteohub,2013-06-07 05:48:00,
2013-06-07 01:53:00,61.2,60.3,30.00,ESE,122,1.0,3.0,97,0.03,,,0.06,meteohub,2013-06-07 05:53:00,
2013-06-07 01:58:00,61.2,60.3,29.99,ESE,104,0.0,3.0,97,0.03,,,0.06,meteohub,2013-06-07 05:58:00,
2013-06-07 02:03:00,61.3,60.4,30.00,ESE,114,1.0,3.0,97,0.03,,,0.06,meteohub,2013-06-07 06:03:00,
2013-06-07 02:08:00,61.3,60.4,30.00,East,99,1.0,2.0,97,0.03,,,0.06,meteohub,2013-06-07 06:08:00,
2013-06-07 02:13:00,61.5,60.6,30.00,ESE,108,1.0,2.0,97,0.04,,,0.07,meteohub,2013-06-07 06:13:00,
2013-06-07 02:18:00,61.5,60.6,30.00,ESE,120,0.0,2.0,97,0.04,,,0.07,meteohub,2013-06-07 06:18:00,
2013-06-07 02:23:00,61.5,60.6,30.00,ESE,105,0.0,2.0,97,0.04,,,0.08,meteohub,2013-06-07 06:23:00,
2013-06-07 02:28:00,61.7,60.8,30.00,ESE,108,0.0,2.0,97,0.05,,,0.09,meteohub,2013-06-07 06:28:00,
2013-06-07 02:33:00,61.9,61.0,30.00,ESE,103,0.0,2.0,97,0.05,,,0.10,meteohub,2013-06-07 06:33:00,
2013-06-07 02:38:00,61.9,61.0,30.00,ESE,102,0.0,2.0,97,0.05,,,0.10,meteohub,2013-06-07 06:38:00,
2013-06-07 02:43:00,61.9,61.0,30.00,ESE,108,1.0,2.0,97,0.06,,,0.11,meteohub,2013-06-07 06:43:00,
2013-06-07 02:48:00,61.9,61.0,29.99,East,86,1.0,2.0,97,0.07,,,0.12,meteohub,2013-06-07 06:48:00,
2013-06-07 02:53:00,61.9,61.0,29.99,ESE,113,1.0,2.0,97,0.07,,,0.13,meteohub,2013-06-07 06:53:00,
2013-06-07 02:58:00,61.9,61.0,29.99,ESE,117,1.0,3.0,97,0.09,,,0.15,meteohub,2013-06-07 06:58:00,
2013-06-07 03:03:00,61.7,60.8,29.99,East,94,0.0,3.0,97,0.10,,,0.16,meteohub,2013-06-07 07:03:00,
2013-06-07 03:08:00,61.5,60.6,29.99,ESE,103,2.0,3.0,97,0.12,,,0.18,meteohub,2013-06-07 07:08:00,
2013-06-07 03:13:00,61.5,60.6,29.98,SE,127,0.0,3.0,97,0.12,,,0.19,meteohub,2013-06-07 07:13:00,
2013-06-07 03:18:00,61.3,60.4,29.98,ESE,103,0.0,4.0,97,0.14,,,0.21,meteohub,2013-06-07 07:18:00,
2013-06-07 03:23:00,61.3,60.4,29.98,East,83,0.0,4.0,97,0.15,,,0.23,meteohub,2013-06-07 07:23:00,
2013-06-07 03:28:00,61.3,60.4,29.97,East,96,2.0,4.0,97,0.16,,,0.24,meteohub,2013-06-07 07:28:00,
2013-06-07 03:33:00,61.2,60.3,29.97,East,101,0.0,3.0,97,0.19,,,0.28,meteohub,2013-06-07 07:33:00,
2013-06-07 03:38:00,61.2,60.6,29.97,ESE,110,0.0,3.0,98,0.22,,,0.33,meteohub,2013-06-07 07:38:00,
2013-06-07 03:43:00,61.2,60.6,29.97,ESE,119,2.0,3.0,98,0.26,,,0.37,meteohub,2013-06-07 07:43:00,
2013-06-07 03:48:00,61.2,60.6,29.97,ESE,107,1.0,3.0,98,0.29,,,0.41,meteohub,2013-06-07 07:48:00,
2013-06-07 03:53:00,61.2,60.6,29.97,East,99,0.0,3.0,98,0.31,,,0.44,meteohub,2013-06-07 07:53:00,
2013-06-07 03:58:00,61.2,60.6,29.97,ESE,108,1.0,3.0,98,0.33,,,0.48,meteohub,2013-06-07 07:58:00,
2013-06-07 04:03:00,61.2,60.6,29.96,East,100,1.0,4.0,98,0.36,,,0.52,meteohub,2013-06-07 08:03:00,
2013-06-07 04:08:00,61.2,60.6,29.96,SE,127,1.0,4.0,98,0.37,,,0.55,meteohub,2013-06-07 08:08:00,
2013-06-07 04:13:00,61.2,60.6,29.96,ESE,104,2.0,4.0,98,0.38,,,0.57,meteohub,2013-06-07 08:13:00,
2013-06-07 04:18:00,61.0,60.4,29.96,East,94,0.0,3.0,98,0.37,,,0.58,meteohub,2013-06-07 08:18:00,
2013-06-07 04:23:00,61.0,60.4,29.95,East,96,1.0,3.0,98,0.36,,,0.59,meteohub,2013-06-07 08:23:00,
2013-06-07 04:29:00,61.0,60.4,29.96,ESE,117,0.0,3.0,98,0.34,,,0.59,meteohub,2013-06-07 08:29:00,
2013-06-07 04:34:00,61.0,60.4,29.95,East,89,1.0,3.0,98,0.31,,,0.59,meteohub,2013-06-07 08:34:00,
2013-06-07 04:39:00,61.0,60.4,29.95,SSE,158,2.0,3.0,98,0.27,,,0.60,meteohub,2013-06-07 08:39:00,
2013-06-07 04:44:00,61.0,60.4,29.95,SE,140,0.0,3.0,98,0.23,,,0.61,meteohub,2013-06-07 08:44:00,
2013-06-07 04:49:00,61.0,60.4,29.95,East,90,0.0,4.0,98,0.20,,,0.61,meteohub,2013-06-07 08:49:00,
2013-06-07 04:54:00,61.2,60.6,29.95,ESE,112,2.0,4.0,98,0.16,,,0.61,meteohub,2013-06-07 08:54:00,
2013-06-07 04:59:00,61.2,60.6,29.95,East,98,0.0,3.0,98,0.12,,,0.61,meteohub,2013-06-07 08:59:00,
2013-06-07 05:04:00,61.3,60.8,29.95,ESE,110,1.0,3.0,98,0.10,,,0.62,meteohub,2013-06-07 09:04:00,
2013-06-07 05:09:00,61.3,60.8,29.95,East,98,2.0,3.0,98,0.08,,,0.62,meteohub,2013-06-07 09:09:00,
2013-06-07 05:14:00,61.3,60.8,29.95,ESE,109,1.0,3.0,98,0.07,,,0.64,meteohub,2013-06-07 09:14:00,
2013-06-07 05:19:00,61.3,60.8,29.95,SE,127,1.0,3.0,98,0.08,,,0.66,meteohub,2013-06-07 09:19:00,
2013-06-07 05:24:00,61.3,60.8,29.94,East,98,1.0,3.0,98,0.08,,,0.67,meteohub,2013-06-07 09:24:00,
2013-06-07 05:29:00,61.3,60.8,29.94,East,88,0.0,3.0,98,0.09,,,0.68,meteohub,2013-06-07 09:29:00,
2013-06-07 05:34:00,61.5,61.0,29.94,ENE,68,3.0,3.0,98,0.09,,,0.69,meteohub,2013-06-07 09:34:00,
2013-06-07 05:39:00,61.5,61.0,29.94,East,85,1.0,3.0,98,0.11,,,0.71,meteohub,2013-06-07 09:39:00,
2013-06-07 05:44:00,61.5,61.0,29.94,East,81,2.0,3.0,98,0.11,,,0.72,meteohub,2013-06-07 09:44:00,
2013-06-07 05:49:00,61.5,61.0,29.94,ESE,112,1.0,5.0,98,0.12,,,0.73,meteohub,2013-06-07 09:49:00,
2013-06-07 05:54:00,61.5,61.0,29.94,NNE,27,1.0,5.0,98,0.13,,,0.74,meteohub,2013-06-07 09:54:00,
2013-06-07 05:59:00,61.7,61.2,29.94,ESE,117,1.0,5.0,98,0.14,,,0.75,meteohub,2013-06-07 09:59:00,
2013-06-07 06:04:00,61.5,61.0,29.94,ESE,102,2.0,4.0,98,0.14,,,0.76,meteohub,2013-06-07 10:04:00,
2013-06-07 06:09:00,61.3,60.8,29.94,East,86,1.0,4.0,98,0.14,,,0.77,meteohub,2013-06-07 10:09:00,
2013-06-07 06:14:00,61.3,60.8,29.94,WSW,239,3.0,4.0,98,0.15,,,0.79,meteohub,2013-06-07 10:14:00,
2013-06-07 06:19:00,61.2,60.6,29.94,ESE,121,0.0,4.0,98,0.14,,,0.80,meteohub,2013-06-07 10:19:00,
2013-06-07 06:24:00,61.2,60.6,29.94,ESE,110,1.0,4.0,98,0.14,,,0.81,meteohub,2013-06-07 10:24:00,
2013-06-07 06:29:00,61.2,60.6,29.94,East,97,0.0,4.0,98,0.14,,,0.82,meteohub,2013-06-07 10:29:00,
2013-06-07 06:34:00,61.2,60.6,29.94,East,101,0.0,3.0,98,0.13,,,0.82,meteohub,2013-06-07 10:34:00,
2013-06-07 06:39:00,61.2,60.6,29.94,ENE,63,0.0,3.0,98,0.12,,,0.83,meteohub,2013-06-07 10:39:00,
2013-06-07 06:44:00,61.2,60.6,29.94,ESE,114,0.0,3.0,98,0.12,,,0.84,meteohub,2013-06-07 10:44:00,
2013-06-07 06:49:00,61.3,60.8,29.93,NE,53,2.0,2.0,98,0.12,,,0.85,meteohub,2013-06-07 10:49:00,
2013-06-07 06:54:00,61.3,60.8,29.94,ENE,74,1.0,6.0,98,0.12,,,0.86,meteohub,2013-06-07 10:54:00,
2013-06-07 06:59:00,61.5,61.0,29.94,ESE,105,3.0,6.0,98,0.11,,,0.86,meteohub,2013-06-07 10:59:00,
2013-06-07 07:04:00,61.5,61.0,29.94,ESE,117,0.0,6.0,98,0.10,,,0.86,meteohub,2013-06-07 11:04:00,
2013-06-07 07:09:00,61.5,61.0,29.93,WNW,294,2.0,6.0,98,0.10,,,0.87,meteohub,2013-06-07 11:09:00,
2013-06-07 07:14:00,61.5,61.0,29.93,SE,141,0.0,7.0,98,0.10,,,0.89,meteohub,2013-06-07 11:14:00,
2013-06-07 07:19:00,61.5,61.0,29.93,East,98,2.0,7.0,98,0.10,,,0.90,meteohub,2013-06-07 11:19:00,
2013-06-07 07:24:00,61.3,60.8,29.93,ESE,120,0.0,7.0,98,0.11,,,0.92,meteohub,2013-06-07 11:24:00,
2013-06-07 07:29:00,61.3,60.8,29.93,ENE,67,3.0,5.0,98,0.11,,,0.93,meteohub,2013-06-07 11:29:00,
2013-06-07 07:34:00,61.3,60.8,29.93,SE,134,1.0,4.0,98,0.13,,,0.95,meteohub,2013-06-07 11:34:00,
2013-06-07 07:39:00,61.3,60.8,29.93,ENE,61,2.0,4.0,98,0.12,,,0.95,meteohub,2013-06-07 11:39:00,
2013-06-07 07:44:00,61.3,60.8,29.92,East,89,2.0,4.0,98,0.11,,,0.95,meteohub,2013-06-07 11:44:00,
2013-06-07 07:49:00,61.3,60.8,29.92,East,94,0.0,4.0,98,0.10,,,0.95,meteohub,2013-06-07 11:49:00,
2013-06-07 07:54:00,61.3,60.8,29.93,SE,130,0.0,4.0,98,0.10,,,0.96,meteohub,2013-06-07 11:54:00,
2013-06-07 07:59:00,61.3,60.8,29.93,East,91,1.0,8.0,98,0.10,,,0.96,meteohub,2013-06-07 11:59:00,
2013-06-07 08:05:00,61.3,60.8,29.92,ESE,108,1.0,8.0,98,0.10,,,0.96,meteohub,2013-06-07 12:05:00,
2013-06-07 08:10:00,61.3,60.8,29.92,SE,140,0.0,8.0,98,0.10,,,0.97,meteohub,2013-06-07 12:10:00,
2013-06-07 08:15:00,61.3,60.8,29.92,East,87,0.0,6.0,98,0.09,,,0.98,meteohub,2013-06-07 12:15:00,
2013-06-07 08:20:00,61.3,60.8,29.92,East,96,3.0,6.0,98,0.08,,,0.98,meteohub,2013-06-07 12:20:00,
2013-06-07 08:25:00,61.3,60.8,29.92,ENE,67,1.0,6.0,98,0.07,,,0.99,meteohub,2013-06-07 12:25:00,
2013-06-07 08:30:00,61.2,60.6,29.92,WNW,290,1.0,5.0,98,0.06,,,1.00,meteohub,2013-06-07 12:30:00,
2013-06-07 08:35:00,61.2,60.6,29.92,SE,127,2.0,6.0,98,0.05,,,1.01,meteohub,2013-06-07 12:35:00,
2013-06-07 08:40:00,61.2,60.6,29.92,ESE,119,3.0,6.0,98,0.07,,,1.02,meteohub,2013-06-07 12:40:00,
2013-06-07 08:45:00,61.3,60.8,29.92,ESE,112,0.0,6.0,98,0.09,,,1.04,meteohub,2013-06-07 12:45:00,
2013-06-07 08:50:00,61.3,60.8,29.92,East,87,1.0,5.0,98,0.09,,,1.05,meteohub,2013-06-07 12:50:00,
2013-06-07 08:55:00,61.3,60.8,29.92,East,84,3.0,4.0,98,0.10,,,1.06,meteohub,2013-06-07 12:55:00,
2013-06-07 09:00:00,61.2,60.6,29.92,East,85,2.0,4.0,98,0.10,,,1.07,meteohub,2013-06-07 13:00:00,
2013-06-07 09:05:00,61.2,60.6,29.92,ENE,74,3.0,4.0,98,0.11,,,1.08,meteohub,2013-06-07 13:05:00,
2013-06-07 09:10:00,61.2,60.6,29.91,ESE,104,2.0,5.0,98,0.11,,,1.09,meteohub,2013-06-07 13:10:00,
2013-06-07 09:15:00,61.3,60.8,29.91,ENE,69,0.0,5.0,98,0.11,,,1.09,meteohub,2013-06-07 13:15:00,
2013-06-07 09:20:00,61.3,60.8,29.91,ESE,102,2.0,5.0,98,0.11,,,1.10,meteohub,2013-06-07 13:20:00,
2013-06-07 09:25:00,61.3,60.8,29.91,ENE,58,3.0,5.0,98,0.11,,,1.10,meteohub,2013-06-07 13:25:00,
2013-06-07 09:30:00,61.3,61.0,29.91,ENE,74,3.0,4.0,99,0.11,,,1.11,meteohub,2013-06-07 13:30:00,
2013-06-07 09:35:00,61.3,60.8,29.91,ESE,117,3.0,4.0,98,0.09,,,1.11,meteohub,2013-06-07 13:35:00,
2013-06-07 09:40:00,61.3,61.0,29.91,East,98,2.0,4.0,99,0.09,,,1.12,meteohub,2013-06-07 13:40:00,
2013-06-07 09:45:00,61.3,60.8,29.91,East,94,2.0,6.0,98,0.08,,,1.12,meteohub,2013-06-07 13:45:00,
2013-06-07 09:50:00,61.3,60.8,29.91,East,101,3.0,6.0,98,0.08,,,1.13,meteohub,2013-06-07 13:50:00,
2013-06-07 09:55:00,61.5,61.0,29.91,ENE,75,1.0,6.0,98,0.08,,,1.14,meteohub,2013-06-07 13:55:00,
2013-06-07 10:00:00,61.5,61.0,29.91,East,79,2.0,5.0,98,0.07,,,1.14,meteohub,2013-06-07 14:00:00,
2013-06-07 10:05:00,61.5,61.0,29.91,ENE,78,1.0,5.0,98,0.07,,,1.15,meteohub,2013-06-07 14:05:00,
2013-06-07 10:10:00,61.5,61.2,29.91,ENE,70,2.0,4.0,99,0.07,,,1.16,meteohub,2013-06-07 14:10:00,
2013-06-07 10:15:00,61.5,61.0,29.91,SSW,204,2.0,4.0,98,0.07,,,1.16,meteohub,2013-06-07 14:15:00,
2013-06-07 10:20:00,61.5,61.0,29.91,SE,127,2.0,4.0,98,0.07,,,1.17,meteohub,2013-06-07 14:20:00,
2013-06-07 10:25:00,61.5,61.0,29.91,South,175,2.0,4.0,98,0.08,,,1.18,meteohub,2013-06-07 14:25:00,
2013-06-07 10:30:00,61.5,61.0,29.91,ESE,112,0.0,4.0,98,0.08,,,1.19,meteohub,2013-06-07 14:30:00,
2013-06-07 10:35:00,61.5,61.2,29.91,ESE,110,0.0,4.0,99,0.09,,,1.20,meteohub,2013-06-07 14:35:00,
2013-06-07 10:40:00,61.5,61.2,29.90,ESE,106,0.0,4.0,99,0.09,,,1.21,meteohub,2013-06-07 14:40:00,
2013-06-07 10:45:00,61.7,61.3,29.90,ESE,111,3.0,3.0,99,0.10,,,1.22,meteohub,2013-06-07 14:45:00,
2013-06-07 10:50:00,61.5,61.0,29.90,ESE,117,0.0,4.0,98,0.10,,,1.23,meteohub,2013-06-07 14:50:00,
2013-06-07 10:55:00,61.7,61.3,29.90,SE,136,1.0,4.0,99,0.11,,,1.25,meteohub,2013-06-07 14:55:00,
2013-06-07 11:00:00,61.7,61.2,29.90,WSW,243,1.0,4.0,98,0.14,,,1.28,meteohub,2013-06-07 15:00:00,
2013-06-07 11:05:00,61.7,61.2,29.90,ESE,104,0.0,4.0,98,0.14,,,1.29,meteohub,2013-06-07 15:05:00,
2013-06-07 11:10:00,61.7,61.3,29.90,East,89,1.0,4.0,99,0.14,,,1.30,meteohub,2013-06-07 15:10:00,
2013-06-07 11:15:00,61.9,61.5,29.90,North,356,3.0,4.0,99,0.15,,,1.31,meteohub,2013-06-07 15:15:00,
2013-06-07 11:20:00,61.7,61.2,29.90,ENE,71,3.0,5.0,98,0.15,,,1.32,meteohub,2013-06-07 15:20:00,
2013-06-07 11:25:00,61.7,61.2,29.90,ESE,107,1.0,5.0,98,0.14,,,1.32,meteohub,2013-06-07 15:25:00,
2013-06-07 11:30:00,61.9,61.5,29.90,NW,304,0.0,5.0,99,0.14,,,1.33,meteohub,2013-06-07 15:30:00,
2013-06-07 11:35:00,61.7,61.2,29.90,East,86,1.0,4.0,98,0.14,,,1.34,meteohub,2013-06-07 15:35:00,
2013-06-07 11:40:00,61.7,61.2,29.90,ENE,63,0.0,9.0,98,0.14,,,1.35,meteohub,2013-06-07 15:40:00,
2013-06-07 11:45:00,61.7,61.2,29.90,East,94,2.0,9.0,98,0.15,,,1.37,meteohub,2013-06-07 15:45:00,
2013-06-07 11:50:00,61.7,61.2,29.90,East,85,0.0,9.0,98,0.21,,,1.44,meteohub,2013-06-07 15:50:00,
2013-06-07 11:55:00,61.9,61.5,29.90,ENE,77,0.0,4.0,99,0.20,,,1.45,meteohub,2013-06-07 15:55:00,
2013-06-07 12:00:00,61.9,61.3,29.90,SSW,208,2.0,4.0,98,0.18,,,1.46,meteohub,2013-06-07 16:00:00,
2013-06-07 12:05:00,61.9,61.5,29.90,East,96,0.0,5.0,99,0.18,,,1.47,meteohub,2013-06-07 16:05:00,
2013-06-07 12:10:00,61.9,61.5,29.90,ENE,60,0.0,5.0,99,0.18,,,1.48,meteohub,2013-06-07 16:10:00,
2013-06-07 12:15:00,61.9,61.5,29.90,East,91,1.0,4.0,99,0.17,,,1.48,meteohub,2013-06-07 16:15:00,
2013-06-07 12:20:00,61.9,61.5,29.89,East,91,0.0,3.0,99,0.17,,,1.49,meteohub,2013-06-07 16:20:00,
2013-06-07 12:25:00,61.9,61.5,29.89,NE,53,0.0,4.0,99,0.18,,,1.50,meteohub,2013-06-07 16:25:00,
2013-06-07 12:30:00,62.1,61.7,29.89,ENE,63,0.0,4.0,99,0.18,,,1.51,meteohub,2013-06-07 16:30:00,
2013-06-07 12:35:00,62.1,61.7,29.89,East,99,1.0,4.0,99,0.18,,,1.52,meteohub,2013-06-07 16:35:00,
2013-06-07 12:40:00,62.2,61.9,29.89,East,89,0.0,3.0,99,0.18,,,1.53,meteohub,2013-06-07 16:40:00,
2013-06-07 12:45:00,62.2,61.9,29.89,ENE,78,1.0,3.0,99,0.15,,,1.53,meteohub,2013-06-07 16:45:00,
2013-06-07 12:50:00,62.4,62.1,29.88,ENE,57,0.0,3.0,99,0.10,,,1.54,meteohub,2013-06-07 16:50:00,
2013-06-07 12:55:00,62.4,62.1,29.88,NE,50,0.0,2.0,99,0.11,,,1.56,meteohub,2013-06-07 16:55:00,
2013-06-07 13:00:00,62.4,62.1,29.88,ENE,64,1.0,2.0,99,0.11,,,1.57,meteohub,2013-06-07 17:00:00,
2013-06-07 13:05:00,62.6,62.2,29.88,ENE,64,0.0,2.0,99,0.12,,,1.59,meteohub,2013-06-07 17:05:00,
2013-06-07 13:10:00,62.8,62.4,29.88,ENE,68,1.0,2.0,99,0.13,,,1.61,meteohub,2013-06-07 17:10:00,
2013-06-07 13:15:00,62.8,62.4,29.87,ENE,70,0.0,2.0,99,0.14,,,1.62,meteohub,2013-06-07 17:15:00,
2013-06-07 13:20:00,62.8,62.4,29.87,ENE,61,0.0,2.0,99,0.14,,,1.63,meteohub,2013-06-07 17:20:00,
2013-06-07 13:25:00,63.0,62.6,29.87,ESE,103,0.0,2.0,99,0.14,,,1.64,meteohub,2013-06-07 17:25:00,
2013-06-07 13:30:00,63.0,62.6,29.87,ENE,67,0.0,2.0,99,0.14,,,1.65,meteohub,2013-06-07 17:30:00,
2013-06-07 13:35:00,63.0,62.6,29.87,East,94,0.0,2.0,99,0.15,,,1.67,meteohub,2013-06-07 17:35:00,
2013-06-07 13:40:00,63.1,62.8,29.87,ENE,68,0.0,2.0,99,0.15,,,1.68,meteohub,2013-06-07 17:40:00,
2013-06-07 13:45:00,63.1,62.8,29.86,ENE,57,0.0,2.0,99,0.15,,,1.69,meteohub,2013-06-07 17:45:00,
2013-06-07 13:51:00,63.1,62.8,29.86,ENE,63,0.0,2.0,99,0.15,,,1.70,meteohub,2013-06-07 17:51:00,
2013-06-07 13:54:00,63.3,63.0,29.86,NE,37,0.0,2.0,99,0.15,,,1.70,meteohub,2013-06-07 17:54:00,
2013-06-07 13:57:00,63.3,63.0,29.86,NE,37,0.0,2.0,99,0.16,,,1.72,meteohub,2013-06-07 17:57:00,
2013-06-07 14:02:00,63.3,63.0,29.86,East,81,0.0,0.0,99,0.16,,,1.73,meteohub,2013-06-07 18:02:00,
2013-06-07 14:07:00,63.5,63.1,29.86,ENE,58,0.0,0.0,99,0.15,,,1.74,meteohub,2013-06-07 18:07:00,
2013-06-07 14:12:00,63.3,63.0,29.86,NE,55,1.0,0.0,99,0.14,,,1.75,meteohub,2013-06-07 18:12:00,
2013-06-07 14:17:00,63.3,63.0,29.86,NE,44,2.0,2.0,99,0.14,,,1.76,meteohub,2013-06-07 18:17:00,
2013-06-07 14:22:00,63.3,63.0,29.85,ENE,63,1.0,3.0,99,0.14,,,1.77,meteohub,2013-06-07 18:22:00,
2013-06-07 14:27:00,63.3,63.0,29.85,ENE,63,1.0,3.0,99,0.13,,,1.77,meteohub,2013-06-07 18:27:00,
2013-06-07 14:32:00,63.5,63.1,29.85,NE,40,0.0,3.0,99,0.12,,,1.78,meteohub,2013-06-07 18:32:00,
2013-06-07 14:37:00,63.5,63.1,29.85,North,10,0.0,2.0,99,0.11,,,1.78,meteohub,2013-06-07 18:37:00,
2013-06-07 14:42:00,63.7,63.3,29.84,NE,56,1.0,2.0,99,0.11,,,1.79,meteohub,2013-06-07 18:42:00,
2013-06-07 14:47:00,63.7,63.3,29.84,NE,37,1.0,2.0,99,0.11,,,1.80,meteohub,2013-06-07 18:47:00,
2013-06-07 14:52:00,63.7,63.3,29.84,NE,43,0.0,2.0,99,0.12,,,1.81,meteohub,2013-06-07 18:52:00,
2013-06-07 14:58:00,63.9,63.5,29.84,NE,42,0.0,2.0,99,0.10,,,1.82,meteohub,2013-06-07 18:58:00,
2013-06-07 15:03:00,63.9,63.5,29.84,NE,46,0.0,2.0,99,0.10,,,1.83,meteohub,2013-06-07 19:03:00,
2013-06-07 15:08:00,63.9,63.5,29.83,NE,44,3.0,3.0,99,0.10,,,1.84,meteohub,2013-06-07 19:08:00,
2013-06-07 15:13:00,63.9,63.5,29.83,NE,51,0.0,3.0,99,0.09,,,1.84,meteohub,2013-06-07 19:13:00,
2013-06-07 15:18:00,63.9,63.5,29.83,NE,37,1.0,3.0,99,0.09,,,1.85,meteohub,2013-06-07 19:18:00,
2013-06-07 15:24:00,63.9,63.5,29.82,NE,37,1.0,3.0,99,0.09,,,1.86,meteohub,2013-06-07 19:24:00,
2013-06-07 15:29:00,63.9,63.5,29.82,NE,34,1.0,4.0,99,0.10,,,1.87,meteohub,2013-06-07 19:29:00,
2013-06-07 15:34:00,63.9,63.5,29.82,NE,36,2.0,4.0,99,0.10,,,1.88,meteohub,2013-06-07 19:34:00,
2013-06-07 15:39:00,63.9,63.5,29.81,NE,50,0.0,4.0,99,0.12,,,1.90,meteohub,2013-06-07 19:39:00,
2013-06-07 15:44:00,64.0,63.7,29.81,NNE,32,1.0,3.0,99,0.12,,,1.91,meteohub,2013-06-07 19:44:00,
2013-06-07 15:49:00,64.0,63.7,29.81,NNE,33,0.0,3.0,99,0.13,,,1.93,meteohub,2013-06-07 19:49:00,
2013-06-07 15:54:00,63.9,63.5,29.80,NE,50,1.0,5.0,99,0.12,,,1.94,meteohub,2013-06-07 19:54:00,
2013-06-07 16:00:00,63.9,63.5,29.80,ENE,61,2.0,5.0,99,0.12,,,1.95,meteohub,2013-06-07 20:00:00,
2013-06-07 16:05:00,63.9,63.5,29.79,East,79,1.0,5.0,99,0.14,,,1.98,meteohub,2013-06-07 20:05:00,
2013-06-07 16:10:00,63.9,63.5,29.78,NE,44,3.0,6.0,99,0.15,,,2.00,meteohub,2013-06-07 20:10:00,
2013-06-07 16:15:00,64.0,63.7,29.78,NE,39,2.0,6.0,99,0.15,,,2.00,meteohub,2013-06-07 20:15:00,
2013-06-07 16:20:00,64.0,63.7,29.78,NE,42,1.0,6.0,99,0.17,,,2.03,meteohub,2013-06-07 20:20:00,
2013-06-07 16:26:00,64.0,63.7,29.77,NE,36,2.0,6.0,99,0.17,,,2.04,meteohub,2013-06-07 20:26:00,
2013-06-07 16:31:00,64.0,63.7,29.77,ENE,60,1.0,6.0,99,0.18,,,2.06,meteohub,2013-06-07 20:31:00,
2013-06-07 16:36:00,64.0,63.7,29.77,NE,49,1.0,6.0,99,0.17,,,2.07,meteohub,2013-06-07 20:36:00,
2013-06-07 16:42:00,63.9,63.5,29.77,North,358,0.0,5.0,99,0.18,,,2.09,meteohub,2013-06-07 20:42:00,
2013-06-07 16:47:00,63.9,63.5,29.77,NE,35,3.0,5.0,99,0.17,,,2.10,meteohub,2013-06-07 20:47:00,
2013-06-07 16:52:00,63.7,63.3,29.76,NE,39,2.0,5.0,99,0.16,,,2.10,meteohub,2013-06-07 20:52:00,
2013-06-07 16:57:00,63.5,63.1,29.77,NE,37,0.0,4.0,99,0.15,,,2.10,meteohub,2013-06-07 20:57:00,
2013-06-07 17:02:00,63.3,63.0,29.77,NE,41,1.0,4.0,99,0.13,,,2.10,meteohub,2013-06-07 21:02:00,
2013-06-07 17:07:00,63.1,62.8,29.77,ENE,58,1.0,6.0,99,0.13,,,2.12,meteohub,2013-06-07 21:07:00,
2013-06-07 17:12:00,63.0,62.6,29.76,NE,38,4.0,6.0,99,0.14,,,2.14,meteohub,2013-06-07 21:12:00,
2013-06-07 17:17:00,62.8,62.4,29.76,NE,40,2.0,6.0,99,0.14,,,2.16,meteohub,2013-06-07 21:17:00,
2013-06-07 17:22:00,62.8,62.4,29.76,NE,39,1.0,6.0,99,0.14,,,2.17,meteohub,2013-06-07 21:22:00,
2013-06-07 17:27:00,62.6,62.2,29.77,NE,54,0.0,6.0,99,0.12,,,2.17,meteohub,2013-06-07 21:27:00,
2013-06-07 17:32:00,62.6,62.2,29.75,NE,37,3.0,4.0,99,0.11,,,2.17,meteohub,2013-06-07 21:32:00,
2013-06-07 17:37:00,62.4,62.1,29.75,ENE,58,3.0,6.0,99,0.11,,,2.18,meteohub,2013-06-07 21:37:00,
2013-06-07 17:42:00,62.2,61.9,29.75,NE,41,5.0,6.0,99,0.09,,,2.18,meteohub,2013-06-07 21:42:00,
2013-06-07 17:48:00,62.1,61.7,29.75,NNE,25,2.0,6.0,99,0.08,,,2.18,meteohub,2013-06-07 21:48:00,
2013-06-07 17:53:00,62.1,61.7,29.75,NE,43,5.0,7.0,99,0.08,,,2.18,meteohub,2013-06-07 21:53:00,
2013-06-07 17:59:00,61.9,61.5,29.75,NE,40,1.0,7.0,99,0.08,,,2.18,meteohub,2013-06-07 21:59:00,
2013-06-07 18:04:00,61.9,61.5,29.75,NNE,31,1.0,7.0,99,0.08,,,2.18,meteohub,2013-06-07 22:04:00,
2013-06-07 18:09:00,61.9,61.5,29.75,NE,44,3.0,7.0,99,0.06,,,2.18,meteohub,2013-06-07 22:09:00,
2013-06-07 18:14:00,61.7,61.3,29.75,NE,36,4.0,6.0,99,0.03,,,2.18,meteohub,2013-06-07 22:14:00,
2013-06-07 18:19:00,61.5,61.2,29.75,NE,34,3.0,6.0,99,0.03,,,2.19,meteohub,2013-06-07 22:19:00,
2013-06-07 18:24:00,61.5,61.2,29.75,ENE,60,5.0,6.0,99,0.03,,,2.19,meteohub,2013-06-07 22:24:00,
2013-06-07 18:29:00,61.3,61.0,29.75,ENE,61,1.0,7.0,99,0.04,,,2.21,meteohub,2013-06-07 22:29:00,
2013-06-07 18:34:00,61.3,61.0,29.75,NE,51,4.0,7.0,99,0.08,,,2.25,meteohub,2013-06-07 22:34:00,
2013-06-07 18:39:00,61.3,61.0,29.75,NE,39,5.0,7.0,99,0.10,,,2.28,meteohub,2013-06-07 22:39:00,
2013-06-07 18:45:00,61.3,61.0,29.74,NE,46,4.0,8.0,99,0.16,,,2.33,meteohub,2013-06-07 22:45:00,
2013-06-07 18:50:00,61.2,60.8,29.75,NE,36,3.0,8.0,99,0.19,,,2.37,meteohub,2013-06-07 22:50:00,
2013-06-07 18:55:00,61.2,60.8,29.73,NE,50,3.0,8.0,99,0.20,,,2.38,meteohub,2013-06-07 22:55:00,
2013-06-07 19:00:00,61.2,60.8,29.74,NE,42,2.0,7.0,99,0.24,,,2.41,meteohub,2013-06-07 23:00:00,
2013-06-07 19:05:00,61.0,60.6,29.73,NE,46,4.0,7.0,99,0.28,,,2.46,meteohub,2013-06-07 23:05:00,
2013-06-07 19:10:00,61.0,60.6,29.73,NNE,29,1.0,7.0,99,0.28,,,2.46,meteohub,2013-06-07 23:10:00,
2013-06-07 19:15:00,60.8,60.4,29.74,NNE,20,0.0,8.0,99,0.38,,,2.57,meteohub,2013-06-07 23:15:00,
2013-06-07 19:21:00,60.8,60.4,29.75,ENE,63,1.0,8.0,99,0.43,,,2.63,meteohub,2013-06-07 23:21:00,
2013-06-07 19:26:00,60.6,60.3,29.74,NE,46,0.0,6.0,99,0.51,,,2.72,meteohub,2013-06-07 23:26:00,
2013-06-07 19:31:00,60.6,60.3,29.74,NNE,26,1.0,7.0,99,0.52,,,2.77,meteohub,2013-06-07 23:31:00,
2013-06-07 19:36:00,60.6,60.3,29.74,ENE,57,1.0,7.0,99,0.53,,,2.81,meteohub,2013-06-07 23:36:00,
2013-06-07 19:41:00,60.4,60.1,29.74,ENE,70,1.0,7.0,99,0.50,,,2.84,meteohub,2013-06-07 23:41:00,
2013-06-07 19:46:00,60.4,60.1,29.75,NNE,32,3.0,7.0,99,0.51,,,2.88,meteohub,2013-06-07 23:46:00,
2013-06-07 19:51:00,60.4,60.1,29.74,NE,40,6.0,7.0,99,0.51,,,2.89,meteohub,2013-06-07 23:51:00,
2013-06-07 19:56:00,60.4,60.1,29.73,NNE,15,1.0,6.0,99,0.53,,,2.91,meteohub,2013-06-07 23:56:00,
2013-06-07 20:01:00,60.4,60.1,29.74,NNE,29,4.0,6.0,99,0.50,,,2.92,meteohub,2013-06-08 00:01:00,
2013-06-07 20:07:00,60.3,59.9,29.73,NNE,29,5.0,6.0,99,0.48,,,2.94,meteohub,2013-06-08 00:07:00,
2013-06-07 20:12:00,60.3,59.9,29.73,NE,36,2.0,6.0,99,0.42,,,2.95,meteohub,2013-06-08 00:12:00,
2013-06-07 20:18:00,60.3,59.9,29.72,NE,56,2.0,6.0,99,0.40,,,2.97,meteohub,2013-06-08 00:18:00,
2013-06-07 20:23:00,60.3,59.9,29.72,NNE,14,3.0,6.0,99,0.40,,,3.03,meteohub,2013-06-08 00:23:00,
2013-06-07 20:28:00,60.3,59.9,29.72,ENE,58,3.0,6.0,99,0.33,,,3.05,meteohub,2013-06-08 00:28:00,
2013-06-07 20:33:00,60.4,60.1,29.72,NNE,14,1.0,6.0,99,0.30,,,3.07,meteohub,2013-06-08 00:33:00,
2013-06-07 20:38:00,60.4,60.1,29.72,ENE,70,3.0,6.0,99,0.27,,,3.08,meteohub,2013-06-08 00:38:00,
2013-06-07 20:44:00,60.4,60.1,29.71,NNE,31,2.0,10.0,99,0.26,,,3.10,meteohub,2013-06-08 00:44:00,
2013-06-07 20:49:00,60.4,60.1,29.71,North,4,3.0,10.0,99,0.27,,,3.14,meteohub,2013-06-08 00:49:00,
2013-06-07 20:54:00,60.4,60.1,29.71,SE,135,3.0,10.0,99,0.29,,,3.18,meteohub,2013-06-08 00:54:00,
2013-06-07 20:59:00,60.6,60.3,29.72,NNE,16,0.0,8.0,99,0.28,,,3.19,meteohub,2013-06-08 00:59:00,
2013-06-07 21:04:00,60.6,60.3,29.70,ENE,67,1.0,7.0,99,0.29,,,3.21,meteohub,2013-06-08 01:04:00,
2013-06-07 21:09:00,60.6,60.3,29.70,NE,49,1.0,7.0,99,0.32,,,3.26,meteohub,2013-06-08 01:09:00,
2013-06-07 21:14:00,60.6,60.3,29.70,NE,46,2.0,8.0,99,0.32,,,3.27,meteohub,2013-06-08 01:14:00,
2013-06-07 21:20:00,60.6,60.3,29.70,NNE,22,3.0,8.0,99,0.33,,,3.30,meteohub,2013-06-08 01:20:00,
2013-06-07 21:25:00,60.8,60.4,29.70,NNE,25,4.0,8.0,99,0.27,,,3.30,meteohub,2013-06-08 01:25:00,
2013-06-07 21:30:00,60.8,60.4,29.70,NE,35,4.0,10.0,99,0.27,,,3.36,meteohub,2013-06-08 01:30:00,
2013-06-07 21:35:00,61.0,60.6,29.70,North,354,1.0,10.0,99,0.34,,,3.42,meteohub,2013-06-08 01:35:00,
2013-06-07 21:40:00,61.0,60.6,29.69,NE,53,6.0,10.0,99,0.34,,,3.47,meteohub,2013-06-08 01:40:00,
2013-06-07 21:45:00,61.0,60.6,29.70,NNE,15,0.0,7.0,99,0.36,,,3.47,meteohub,2013-06-08 01:45:00,
2013-06-07 21:50:00,61.0,60.6,29.70,North,11,4.0,7.0,99,0.33,,,3.51,meteohub,2013-06-08 01:50:00,
2013-06-07 21:55:00,61.0,60.6,29.69,NNE,29,1.0,7.0,99,0.33,,,3.52,meteohub,2013-06-08 01:55:00,
2013-06-07 22:01:00,61.0,60.6,29.69,NNE,27,4.0,6.0,99,0.31,,,3.52,meteohub,2013-06-08 02:01:00,
2013-06-07 22:06:00,61.2,60.8,29.69,NNE,19,2.0,6.0,99,0.27,,,3.53,meteohub,2013-06-08 02:06:00,
2013-06-07 22:11:00,61.2,60.8,29.69,ENE,65,3.0,6.0,99,0.26,,,3.53,meteohub,2013-06-08 02:11:00,
2013-06-07 22:16:00,61.2,60.8,29.69,NE,40,5.0,8.0,99,0.23,,,3.53,meteohub,2013-06-08 02:16:00,
2013-06-07 22:21:00,61.2,60.8,29.68,ENE,63,4.0,13.0,99,0.23,,,3.53,meteohub,2013-06-08 02:21:00,
2013-06-07 22:26:00,61.2,60.8,29.68,NNE,33,3.0,13.0,99,0.21,,,3.53,meteohub,2013-06-08 02:26:00,
2013-06-07 22:32:00,61.2,60.8,29.68,NE,50,2.0,13.0,99,0.17,,,3.53,meteohub,2013-06-08 02:32:00,
2013-06-07 22:37:00,61.2,60.8,29.68,NE,46,1.0,10.0,99,0.10,,,3.53,meteohub,2013-06-08 02:37:00,
2013-06-07 22:42:00,61.2,60.8,29.67,ENE,67,4.0,10.0,99,0.06,,,3.53,meteohub,2013-06-08 02:42:00,
2013-06-07 22:47:00,61.3,61.0,29.67,NE,46,2.0,8.0,99,0.03,,,3.53,meteohub,2013-06-08 02:47:00,
2013-06-07 22:52:00,61.3,61.0,29.67,NNE,27,6.0,8.0,99,0.02,,,3.53,meteohub,2013-06-08 02:52:00,
2013-06-07 22:57:00,61.3,61.0,29.67,NE,36,2.0,8.0,99,0.02,,,3.54,meteohub,2013-06-08 02:57:00,
2013-06-07 23:02:00,61.3,61.0,29.66,NE,51,1.0,7.0,99,0.02,,,3.54,meteohub,2013-06-08 03:02:00,
2013-06-07 23:08:00,61.3,61.0,29.66,NE,43,6.0,7.0,99,0.02,,,3.55,meteohub,2013-06-08 03:08:00,
2013-06-07 23:13:00,61.3,61.0,29.65,NE,54,4.0,8.0,99,0.02,,,3.55,meteohub,2013-06-08 03:13:00,
2013-06-07 23:18:00,61.3,61.0,29.65,ENE,70,3.0,8.0,99,0.02,,,3.55,meteohub,2013-06-08 03:18:00,
2013-06-07 23:23:00,61.3,61.0,29.65,ENE,61,3.0,8.0,99,0.03,,,3.56,meteohub,2013-06-08 03:23:00,
2013-06-07 23:28:00,61.3,61.0,29.65,NE,53,2.0,7.0,99,0.03,,,3.56,meteohub,2013-06-08 03:28:00,
2013-06-07 23:33:00,61.3,61.0,29.64,NE,50,7.0,7.0,99,0.03,,,3.56,meteohub,2013-06-08 03:33:00,
2013-06-07 23:39:00,61.3,61.0,29.64,NE,50,4.0,7.0,99,0.03,,,3.56,meteohub,2013-06-08 03:39:00,
2013-06-07 23:44:00,61.3,61.0,29.64,NE,49,1.0,9.0,99,0.03,,,3.56,meteohub,2013-06-08 03:44:00,
2013-06-07 23:49:00,61.3,61.0,29.64,NE,49,1.0,9.0,99,0.03,,,3.56,meteohub,2013-06-08 03:49:00,
2013-06-07 23:54:00,61.3,61.0,29.63,North,354,3.0,9.0,99,0.03,,,3.56,meteohub,2013-06-08 03:54:00,
2013-06-07 23:59:00,61.3,61.0,29.63,NE,41,2.0,7.0,99,0.02,,,3.56,meteohub,2013-06-08 03:59:00,